This demonstration page uses our WeatherBlox Daily Observations layout. Learn more.

40.92945, -100.16068

Hourly Observations for January 19, 2018

Temp ( °F °C ) Dew Point ( °F °C ) Humidity (%) Winds ( mph kmh ) Pressure ( in mb ) Visibility ( mi km ) Precip ( " mm )
12:15 am 00:15 Clear 29 -1.6 25 -3.7 86 86 Calm 29.94 1014 10 16.0934 0 0
12:35 am 00:35 Clear 30 -1.3 26 -3.5 85 85 Calm 29.94 1014 10 16.0934 0 0
12:55 am 00:55 Clear 30 -1.3 26 -3.5 85 85 Calm 29.94 1014 10 16.0934 0 0
1:15 am 01:15 Clear 29 -1.7 25 -3.8 86 86 NW 3 6 29.94 1014 10 16.0934 0 0
1:35 am 01:35 Clear 30 -1.3 26 -3.6 85 85 WNW 3 6 29.88 1012 10 16.0934 0 0
1:55 am 01:55 Clear 30 -0.9 25 -3.8 81 81 W 8 13 29.88 1012 10 16.0934 0 0
2:15 am 02:15 Clear 32 0 25 -3.9 75 75 W 7 11 29.85 1011 10 16.0934 0 0
2:35 am 02:35 Clear 31 -0.8 25 -4 79 79 W 5 7 29.85 1011 10 16.0934 0 0
2:55 am 02:55 Clear 30 -0.9 25 -4 80 80 Calm 29.85 1011 10 16.0934 0 0
3:15 am 03:15 Clear 30 -1 25 -4 80 80 WNW 6 9 29.85 1011 10 16.0934 0 0
3:35 am 03:35 Clear 30 -1.1 25 -3.8 82 82 NNW 8 13 29.85 1011 10 16.0934 0 0
3:55 am 03:55 Clear 29 -1.7 24 -4.3 83 83 NW 6 9 29.88 1012 10 16.0934 0 0
4:15 am 04:15 Clear 28 -2 24 -4.6 83 83 W 6 9 29.88 1012 10 16.0934 0 0
4:35 am 04:35 Clear 28 -2.4 24 -4.5 86 86 WNW 7 11 29.88 1012 10 16.0934 0 0
4:55 am 04:55 Clear 27 -2.6 23 -5 84 84 W 5 7 29.88 1012 10 16.0934 0 0
5:15 am 05:15 Clear 28 -2.1 24 -4.6 83 83 WNW 3 6 29.88 1012 10 16.0934 0 0
5:35 am 05:35 Clear 27 -2.6 23 -4.8 85 85 W 3 6 29.85 1011 10 16.0934 0 0
5:55 am 05:55 Clear 28 -2.4 23 -4.8 84 84 Calm 29.85 1011 10 16.0934 0 0
6:15 am 06:15 Clear 27 -2.8 23 -5.1 84 84 Calm 29.85 1011 10 16.0934 0 0
6:35 am 06:35 Clear 28 -2.4 23 -5 83 83 Calm 29.85 1011 10 16.0934 0 0
6:55 am 06:55 Clear 27 -2.7 22 -5.3 83 83 W 5 7 29.85 1011 10 16.0934 0 0
7:15 am 07:15 Clear 28 -2.5 23 -5 83 83 W 7 11 29.85 1011 10 16.0934 0 0
7:35 am 07:35 Clear 28 -2.3 24 -4.5 85 85 W 7 11 29.85 1011 10 16.0934 0 0
7:55 am 07:55 Clear 28 -2.5 23 -4.8 84 84 WSW 3 6 29.85 1011 10 16.0934 0 0
8:15 am 08:15 Sunny 28 -2.2 24 -4.6 84 84 Calm 29.85 1011 10 16.0934 0 0
8:35 am 08:35 Sunny 29 -1.4 26 -3.6 85 85 Calm 29.83 1010 10 16.0934 0 0
8:55 am 08:55 Sunny 31 -0.4 27 -2.9 83 83 WSW 7 11 29.8 1009 10 16.0934 0 0
9:15 am 09:15 Sunny 33 0.3 28 -2.5 82 82 W 8 13 29.8 1009 10 16.0934 0 0
9:35 am 09:35 Sunny 33 0.8 28 -2.1 81 81 Calm 29.83 1010 10 16.0934 0 0
9:55 am 09:55 Sunny 35 1.4 30 -1.3 82 82 W 5 7 29.77 1008 10 16.0934 0 0
10:15 am 10:15 Sunny 37 2.7 31 -0.4 80 80 W 3 6 29.77 1008 10 16.0934 0 0
10:35 am 10:35 Sunny 38 3.3 32 -0.2 78 78 NW 6 9 29.8 1009 10 16.0934 0 0
10:55 am 10:55 Sunny 38 3.2 31 -0.6 76 76 W 7 11 29.8 1009 10 16.0934 0 0
11:15 am 11:15 Sunny 39 4.1 30 -0.9 70 70 WNW 6 9 29.74 1007 10 16.0934 0 0
11:35 am 11:35 Sunny 39 4.1 31 -0.3 73 73 NW 3 6 29.74 1007 10 16.0934 0 0
11:55 am 11:55 Sunny 41 5 32 -0.2 69 69 W 5 7 29.74 1007 10 16.0934 0 0
12:15 pm 12:15 Sunny 43 6.1 31 -0.3 64 64 Calm 29.74 1007 10 16.0934 0 0
12:35 pm 12:35 Sunny 46 7.6 32 -0.1 59 59 SSW 3 6 29.71 1006 10 16.0934 0 0
12:55 pm 12:55 Sunny 47 8.6 32 0 55 55 S 3 6 29.68 1005 10 16.0934 0 0
1:15 pm 13:15 Sunny 49 9.4 33 0.5 54 54 Calm 29.68 1005 10 16.0934 0 0
1:35 pm 13:35 Sunny 51 10.5 33 0.8 51 51 Calm 29.65 1004 10 16.0934 0 0
1:55 pm 13:55 Sunny 50 10 34 1.1 54 54 N 5 7 29.65 1004 10 16.0934 0 0
2:15 pm 14:15 Sunny 48 8.8 34 1.1 59 59 N 5 7 29.65 1004 10 16.0934 0 0
2:35 pm 14:35 Sunny 48 9.1 34 1.1 58 58 N 3 6 29.65 1004 10 16.0934 0 0
2:55 pm 14:55 Sunny 50 10.2 33 0.5 51 51 Calm 29.62 1003 10 16.0934 0 0
3:15 pm 15:15 Sunny 52 11 33 0.6 49 49 Calm 29.62 1003 10 16.0934 0 0
3:35 pm 15:35 Sunny 52 10.9 34 1.3 52 52 S 6 9 29.62 1003 10 16.0934 0 0
3:55 pm 15:55 Sunny 50 10 37 2.6 60 60 S 3 6 29.65 1004 10 16.0934 0 0
4:15 pm 16:15 Sunny 50 10 37 2.5 60 60 Calm 29.65 1004 10 16.0934 0 0
4:35 pm 16:35 Sunny 48 8.7 37 2.7 66 66 Calm 29.68 1005 10 16.0934 0 0
4:55 pm 16:55 Sunny 46 7.5 37 2.7 72 72 Calm 29.71 1006 10 16.0934 0 0
5:15 pm 17:15 Sunny 44 6.9 35 1.5 69 69 Calm 29.74 1007 10 16.0934 0 0
5:35 pm 17:35 Sunny 42 5.4 33 0.8 73 73 N 3 6 29.74 1007 10 16.0934 0 0
5:55 pm 17:55 Clear 38 3.4 32 0 79 79 N 3 6 29.77 1008 10 16.0934 0 0
6:15 pm 18:15 Clear 37 3 32 -0.1 80 80 N 6 9 29.77 1008 10 16.0934 0 0
6:35 pm 18:35 Clear 37 2.9 32 -0.1 81 81 NNW 6 9 29.77 1008 10 16.0934 0 0
6:55 pm 18:55 Clear 36 2.3 31 -0.3 83 83 N 5 7 29.77 1008 10 16.0934 0 0
7:15 pm 19:15 Clear 35 1.7 31 -0.5 86 86 Calm 29.77 1008 10 16.0934 0 0
7:35 pm 19:35 Clear 37 2.6 32 -0.1 83 83 Calm 29.77 1008 10 16.0934 0 0
7:55 pm 19:55 Clear 37 2.6 32 -0.2 82 82 Calm 29.77 1008 10 16.0934 0 0
8:15 pm 20:15 Clear 34 1 30 -1 87 87 Calm 29.83 1010 10 16.0934 0 0
8:35 pm 20:35 Clear 36 2.4 32 0 84 84 NNE 5 7 29.8 1009 10 16.0934 0 0
8:55 pm 20:55 Clear 37 2.6 31 -0.8 79 79 Calm 29.8 1009 10 16.0934 0 0
9:15 pm 21:15 Clear 36 2.2 31 -0.6 82 82 Calm 29.8 1009 10 16.0934 0 0
9:35 pm 21:35 Clear 37 2.9 31 -0.4 79 79 Calm 29.8 1009 10 16.0934 0 0
9:55 pm 21:55 Clear 35 1.8 30 -0.9 82 82 Calm 29.8 1009 10 16.0934 0 0
10:15 pm 22:15 Clear 33 0.7 30 -1.1 88 88 Calm 29.83 1010 10 16.0934 0 0
10:35 pm 22:35 Clear 33 0.7 30 -1.1 88 88 Calm 29.85 1011 10 16.0934 0 0
10:55 pm 22:55 Clear 32 0.1 29 -1.4 90 90 WNW 7 11 29.85 1011 10 16.0934 0 0
11:15 pm 23:15 Clear 33 0.4 30 -1.2 89 89 NNW 7 11 29.85 1011 10 16.0934 0 0
11:35 pm 23:35 Clear 33 0.6 30 -0.9 90 90 NNW 9 15 29.85 1011 10 16.0934 0 0
11:55 pm 23:55 Clear 34 1 30 -0.9 87 87 N 8 13 29.83 1010 10 16.0934 0 0

Powered by AerisWeather